Flagstaff, AZ

3:46 AM MST on July 26, 2017 (GMT -0700)
Flagstaff Pulliam

Weather History for KFLG - December, 2012

Change the Weather History Date:

Friday, December 28, 2012

  Actual Average Record
Temperature  
Mean Temperature 14 °F 29 °F  
Max Temperature 32 °F 42 °F 61 °F (1980)
Min Temperature -4 °F 16 °F -12 °F (1966)
Degree Days  
Heating Degree Days 51 36  
Month to date heating degree days 993 989  
Since 1 July heating degree days 2436 2721  
Cooling Degree Days 0 0  
Month to date cooling degree days 0 0  
Year to date cooling degree days 164 117  
Moisture  
Dew Point 5 °F    
Average Humidity 68    
Maximum Humidity 100    
Minimum Humidity 36    
Precipitation  
Precipitation 0.00 in 0.06 in 2.50 in (1992)
Month to date precipitation 1.95 1.66  
Year to date precipitation 14.76 21.65  
Snow  
Snow 0.00 in 0.60 in 9.20 in (1936)
Month to date snowfall 25.9 15.1  
Since 1 July snowfall 27.0 27.3  
Snow Depth 10.00 in    
Sea Level Pressure  
Sea Level Pressure 30.19 in    
Wind  
Wind Speed 3 mph (NE)    
Max Wind Speed 12 mph    
Max Gust Speed 16 mph    
Visibility 10 miles    
Events      
T = Trace of Precipitation, MM = Missing Value Source: NWS Daily Summary

Daily Weather History Graph

Daily Weather History Graph

Search for Another Location

Airport or City:

Trip Planner

Search our weather history database for the weather conditions in past years. The results will help you decide how hot, cold, wet, or windy it might be!

Date:

Astronomy

Dec. 28, 2012 Rise Set
Actual Time 7:34 AM MST 5:23 PM MST
Civil Twilight 7:06 AM MST 5:51 PM MST
Nautical Twilight 6:34 AM MST 6:22 PM MST
Astronomical Twilight 6:03 AM MST 6:53 PM MST
Moon 6:00 PM MST (12/28) 7:32 AM MST (12/28)
Length of Visible Light 10h 45m
Length of Day
9h 48m
Full, 100% of the Moon is Illuminated
Dec 28
Full
Jan 4
Last Quarter
Jan 11
New
Jan 18
First Quarter
Jan 26
Full

Hourly Weather History & Observations

Time (MST) Temp. Windchill Dew Point Humidity Pressure Visibility Wind Dir Wind Speed Gust Speed Precip Events Conditions
12:57 AM 18.0 °F 12.7 °F 12.9 °F 81% 30.01 in 10.0 mi NW 3.5 mph - N/A   Clear
1:57 AM 16.0 °F 7.4 °F 10.9 °F 81% 30.00 in 10.0 mi NNW 5.8 mph - N/A   Clear
2:57 AM 10.9 °F - 7.0 °F 84% 30.06 in 10.0 mi Calm Calm - N/A   Clear
3:57 AM 7.0 °F - 3.9 °F 87% 30.10 in 10.0 mi Calm Calm - N/A   Clear
4:57 AM 1.9 °F - -2.0 °F 83% 30.14 in 10.0 mi Calm Calm - N/A   Clear
5:57 AM -0.0 °F - -2.9 °F 88% 30.17 in 10.0 mi Calm Calm - N/A   Clear
6:57 AM -2.0 °F - -6.0 °F 83% 30.21 in 10.0 mi Calm Calm - N/A   Clear
7:57 AM -2.9 °F - -8.0 °F 79% 30.23 in 10.0 mi Calm Calm - N/A   Clear
8:57 AM 3.9 °F - 3.0 °F 96% 30.21 in 10.0 mi Calm Calm - N/A   Clear
9:57 AM 18.0 °F 12.7 °F 10.0 °F 71% 30.18 in 10.0 mi NNE 3.5 mph - N/A   Clear
10:57 AM 23.0 °F 13.1 °F 10.0 °F 58% 30.17 in 10.0 mi NE 9.2 mph - N/A   Clear
11:57 AM 26.1 °F 19.4 °F 9.0 °F 49% 30.13 in 10.0 mi East 5.8 mph - N/A   Clear
12:57 PM 28.9 °F - 9.0 °F 43% 30.10 in 10.0 mi Calm Calm - N/A   Clear
1:57 PM 32.0 °F 27.5 °F 9.0 °F 38% 30.09 in 10.0 mi ENE 4.6 mph - N/A   Clear
2:57 PM 30.9 °F 23.5 °F 10.9 °F 43% 30.13 in 10.0 mi NE 8.1 mph - N/A   Clear
3:57 PM 28.9 °F 21.1 °F 12.0 °F 49% 30.17 in 10.0 mi NE 8.1 mph - N/A   Clear
4:57 PM 27.0 °F 19.5 °F 10.9 °F 51% 30.22 in 10.0 mi East 6.9 mph - N/A   Clear
5:57 PM 21.9 °F 15.7 °F 9.0 °F 58% 30.28 in 10.0 mi ENE 4.6 mph - N/A   Clear
6:57 PM 16.0 °F - 8.1 °F 71% 30.36 in 10.0 mi Calm Calm - N/A   Clear
7:57 PM 12.9 °F - 6.1 °F 74% 30.38 in 10.0 mi Calm Calm - N/A   Clear
8:57 PM 8.1 °F - 3.9 °F 83% 30.38 in 10.0 mi Calm Calm - N/A   Clear
9:57 PM 7.0 °F 0.1 °F 1.9 °F 80% 30.30 in 10.0 mi NNE 3.5 mph - N/A   Clear
10:57 PM 3.9 °F - 1.9 °F 91% 30.29 in 10.0 mi Calm Calm - N/A   Clear
11:57 PM 3.9 °F - -0.0 °F 84% 30.29 in 10.0 mi Calm Calm - N/A   Clear